Andrews, TX

12:32 AM CST on December 07, 2019 (GMT -0600)
Andrews

Weather History for KE11 - October, 2019

Change the Weather History Date:

Thursday, October 17, 2019

  Actual Average (WUND) Record (WUND)
Temperature  
Mean Temperature 64 °F -  
Max Temperature 81 °F - - (-1)
Min Temperature 48 °F - - (-1)
Growing Degree Days 14 (Base 50)    
Moisture  
Dew Point 36 °F    
Average Humidity 37    
Maximum Humidity 55    
Minimum Humidity 20    
Precipitation  
Precipitation 0.00 in - - ()
Sea Level Pressure  
Sea Level Pressure 30.00 in    
Wind  
Wind Speed 7 mph ()    
Max Wind Speed 13 mph    
Max Gust Speed 18 mph    
Visibility 10.0 miles    
Events      
Averages and records for this station are not official NWS values.
T = Trace of Precipitation, MM = Missing Value Source: Averaged Metar Reports

Daily Weather History Graph

Daily Weather History Graph

Search for Another Location

Airport or City:

Astronomy

Oct. 17, 2019 Rise Set
Actual Time 7:55 AM CDT 7:15 PM CDT
Civil Twilight 7:30 AM CDT 7:40 PM CDT
Nautical Twilight 7:01 AM CDT 8:08 PM CDT
Astronomical Twilight 6:33 AM CDT 8:36 PM CDT
Moon 9:59 PM CDT (10/17) 11:19 AM CDT (10/17)
Length of Visible Light 12h 09m
Length of Day
11h 20m
Waning Gibbous, 86% of the Moon is Illuminated
Oct 17
Waning Gibbous
Oct 21
Last Quarter
Oct 27
New
Nov 4
First Quarter
Nov 12
Full

Hourly Weather History & Observations

Time (CDT) Temp. Dew Point Humidity Pressure Visibility Wind Dir Wind Speed Gust Speed Precip Events Conditions
12:10 AM 53.6 °F 29.7 °F 40% 30.15 in 10.0 mi South 4.6 mph - N/A   Clear
12:35 AM 52.7 °F 30.9 °F 43% 30.15 in 10.0 mi South 5.8 mph - N/A   Clear
12:55 AM 52.5 °F 28.8 °F 40% 30.14 in 10.0 mi SSW 6.9 mph - N/A   Clear
1:15 AM 52.3 °F 28.4 °F 40% 30.14 in 10.0 mi SSW 5.8 mph - N/A   Clear
1:55 AM 50.9 °F 29.1 °F 43% 30.13 in 10.0 mi SW 4.6 mph - N/A   Clear
2:15 AM 50.7 °F 29.1 °F 43% 30.13 in 10.0 mi SSW 6.9 mph - N/A   Clear
2:35 AM 51.3 °F 28.2 °F 41% 30.12 in 10.0 mi SSW 8.1 mph - N/A   Clear
2:55 AM 50.4 °F 28.2 °F 42% 30.12 in 10.0 mi SSW 9.2 mph - N/A   Clear
3:15 AM 50.2 °F 27.9 °F 42% 30.11 in 10.0 mi SSW 8.1 mph - N/A   Clear
3:35 AM 50.4 °F 27.5 °F 41% 30.10 in 10.0 mi SW 6.9 mph - N/A   Clear
3:55 AM 50.2 °F 27.5 °F 42% 30.10 in 10.0 mi SSW 6.9 mph - N/A   Clear
4:15 AM 49.3 °F 27.7 °F 43% 30.10 in 10.0 mi SSW 8.1 mph - N/A   Clear
4:35 AM 50.2 °F 27.5 °F 42% 30.09 in 10.0 mi SSW 6.9 mph - N/A   Clear
4:55 AM 51.3 °F 27.7 °F 40% 30.09 in 10.0 mi SSW 9.2 mph - N/A   Clear
5:15 AM 50.9 °F 28.2 °F 42% 30.08 in 10.0 mi South 8.1 mph - N/A   Clear
5:35 AM 51.3 °F 28.2 °F 41% 30.09 in 10.0 mi SSW 8.1 mph - N/A   Clear
5:55 AM 50.2 °F 28.2 °F 43% 30.09 in 10.0 mi SSW 8.1 mph - N/A   Clear
6:15 AM 50.0 °F 28.4 °F 43% 30.08 in 10.0 mi SSW 8.1 mph - N/A   Clear
6:35 AM 49.1 °F 28.6 °F 45% 30.08 in 10.0 mi South 8.1 mph - N/A   Clear
6:55 AM 49.1 °F 30.0 °F 48% 30.08 in 10.0 mi South 6.9 mph - N/A   Clear
7:15 AM 49.1 °F 30.9 °F 50% 30.07 in 10.0 mi South 6.9 mph - N/A   Clear
7:35 AM 50.4 °F 31.1 °F 48% 30.08 in 10.0 mi SSW 9.2 mph - N/A   Clear
7:55 AM 49.1 °F 30.4 °F 49% 30.07 in 10.0 mi SSW 8.1 mph - N/A   Clear
8:15 AM 48.4 °F 30.6 °F 50% 30.07 in 10.0 mi SSW 6.9 mph - N/A   Clear
8:35 AM 49.5 °F 31.1 °F 49% 30.08 in 10.0 mi WSW 6.9 mph - N/A   Clear
8:55 AM 51.3 °F 31.8 °F 47% 30.08 in 10.0 mi WSW 8.1 mph - N/A   Clear
9:15 AM 54.5 °F 32.0 °F 42% 30.08 in 10.0 mi SW 6.9 mph - N/A   Clear
9:35 AM 57.9 °F 32.2 °F 38% 30.08 in 10.0 mi SSW 9.2 mph - N/A   Clear
9:55 AM 61.9 °F 35.4 °F 37% 30.07 in 10.0 mi SSW 10.4 mph - N/A   Clear
10:10 AM 63.5 °F 38.8 °F 40% 30.07 in 10.0 mi SSW 9.2 mph - N/A   Clear
10:35 AM 65.7 °F 42.6 °F 43% 30.07 in 10.0 mi South 10.4 mph - N/A   Clear
10:55 AM 67.5 °F 43.0 °F 41% 30.07 in 10.0 mi SSW 8.1 mph - N/A   Clear
11:15 AM 68.7 °F 44.2 °F 41% 30.07 in 10.0 mi SSW 8.1 mph - N/A   Clear
11:35 AM 70.3 °F 46.0 °F 42% 30.05 in 10.0 mi SSW 9.2 mph - N/A   Clear
11:55 AM 72.1 °F 46.8 °F 40% 30.05 in 10.0 mi SW 9.2 mph - N/A   Clear
12:15 PM 73.0 °F 46.9 °F 39% 30.05 in 10.0 mi SW 11.5 mph - N/A   Clear
12:35 PM 74.3 °F 46.8 °F 37% 30.04 in 10.0 mi SW 8.1 mph - N/A   Clear
12:55 PM 75.6 °F 46.8 °F 36% 30.03 in 10.0 mi South 8.1 mph - N/A   Clear
1:15 PM 75.9 °F 45.5 °F 34% 30.02 in 10.0 mi WSW 10.4 mph - N/A   Clear
1:35 PM 77.0 °F 45.1 °F 32% 30.00 in 10.0 mi SSW 5.8 mph - N/A   Clear
1:55 PM 78.1 °F 45.3 °F 31% 29.99 in 10.0 mi SW 9.2 mph 17.3 mph N/A   Clear
2:15 PM 78.3 °F 44.2 °F 30% 29.97 in 10.0 mi SW 10.4 mph - N/A   Clear
2:35 PM 79.0 °F 43.5 °F 28% 29.96 in 10.0 mi West 3.5 mph - N/A   Clear
2:55 PM 79.7 °F 43.5 °F 28% 29.95 in 10.0 mi SW 10.4 mph - N/A   Clear
3:15 PM 80.2 °F 42.4 °F 26% 29.94 in 10.0 mi SW 8.1 mph - N/A   Clear
3:35 PM 80.8 °F 41.5 °F 25% 29.93 in 10.0 mi SSW 4.6 mph - N/A   Clear
3:55 PM 81.1 °F 40.5 °F 23% 29.92 in 10.0 mi SW 12.7 mph 18.4 mph N/A   Clear
4:15 PM 81.3 °F 36.9 °F 20% 29.91 in 10.0 mi SW 11.5 mph 16.1 mph N/A   Clear
4:35 PM 81.3 °F 36.7 °F 20% 29.91 in 10.0 mi SSW 12.7 mph 17.3 mph N/A   Clear
4:55 PM 81.3 °F 36.1 °F 20% 29.91 in 10.0 mi SW 9.2 mph - N/A   Clear
5:15 PM 81.0 °F 36.7 °F 20% 29.90 in 10.0 mi SSW 8.1 mph - N/A   Clear
5:35 PM 80.2 °F 36.9 °F 21% 29.89 in 10.0 mi South 12.7 mph - N/A   Clear
5:55 PM 79.5 °F 36.0 °F 21% 29.89 in 10.0 mi South 6.9 mph - N/A   Clear
6:15 PM 79.0 °F 35.6 °F 21% 29.89 in 10.0 mi South 6.9 mph - N/A   Clear
6:35 PM 77.7 °F 36.5 °F 23% 29.88 in 10.0 mi South 5.8 mph - N/A   Clear
6:55 PM 75.2 °F 37.6 °F 26% 29.87 in 10.0 mi SSE 8.1 mph - N/A   Clear
7:15 PM 71.4 °F 38.8 °F 31% 29.87 in 10.0 mi SSE 6.9 mph - N/A   Clear
7:35 PM 68.4 °F 38.5 °F 33% 29.87 in 10.0 mi SSE 6.9 mph - N/A   Clear
7:55 PM 66.6 °F 37.9 °F 35% 29.87 in 10.0 mi SSE 6.9 mph - N/A   Clear
8:15 PM 64.6 °F 37.8 °F 37% 29.88 in 10.0 mi South 8.1 mph - N/A   Clear
8:35 PM 64.8 °F 37.4 °F 36% 29.88 in 10.0 mi SSE 8.1 mph - N/A   Clear
8:55 PM 64.2 °F 37.0 °F 37% 29.88 in 10.0 mi South 8.1 mph - N/A   Clear
9:15 PM 64.6 °F 36.7 °F 36% 29.89 in 10.0 mi South 8.1 mph - N/A   Clear
9:35 PM 64.2 °F 36.1 °F 35% 29.89 in 10.0 mi South 6.9 mph - N/A   Clear
9:55 PM 62.4 °F 36.1 °F 38% 29.89 in 10.0 mi SSE 8.1 mph - N/A   Clear
10:15 PM 62.6 °F 37.0 °F 39% 29.89 in 10.0 mi SSE 8.1 mph - N/A   Clear
10:35 PM 64.2 °F 40.5 °F 42% 29.89 in 10.0 mi South 10.4 mph 16.1 mph N/A   Clear
10:55 PM 64.8 °F 43.0 °F 45% 29.89 in 10.0 mi South 12.7 mph 17.3 mph N/A   Clear
11:15 PM 64.4 °F 45.1 °F 50% 29.89 in 10.0 mi South 10.4 mph 18.4 mph N/A   Clear
11:35 PM 63.7 °F 45.3 °F 51% 29.89 in 10.0 mi South 11.5 mph - N/A   Clear
11:55 PM 62.6 °F 46.2 °F 55% 29.89 in 10.0 mi South 10.4 mph - N/A   Clear